Date,TemperatureHighF,TemperatureAvgF,TemperatureLowF,DewpointHighF,DewpointAvgF,DewpointLowF,HumidityHigh,HumidityAvg,HumidityLow,PressureMaxIn,PressureMinIn,WindSpeedMaxMPH,WindSpeedAvgMPH,GustSpeedMaxMPH,PrecipitationSumIn
2013-10-1,64.0,60.4,52.0,60.0,57.8,51.0,96,91,85,29.96,29.90,0,0,2,0.00
2013-10-2,81.0,66.2,53.0,63.0,58.8,52.0,99,80,50,29.98,29.88,4,1,12,0.00
2013-10-3,76.0,64.1,53.0,61.0,57.4,52.0,98,81,49,30.09,29.98,4,0,9,0.00
2013-10-4,84.0,68.1,58.0,70.0,63.4,57.0,98,87,52,30.03,29.92,4,0,10,0.01
2013-10-5,75.0,68.1,64.0,67.0,64.5,63.0,98,89,72,30.06,29.98,3,1,8,0.01
2013-10-6,66.0,64.6,64.0,66.0,63.6,63.0,99,97,94,30.06,29.98,4,1,9,0.04
2013-10-7,76.0,65.9,56.0,71.0,64.3,49.0,98,94,79,29.98,29.67,12,3,26,0.56
2013-10-8,64.0,54.3,46.0,50.0,47.0,44.0,98,79,49,30.30,29.93,4,1,10,0.01
2013-10-9,60.0,52.5,46.0,48.0,45.1,40.0,95,77,56,30.38,30.27,4,1,12,0.00
2013-10-10,61.0,55.1,50.0,54.0,49.7,45.0,89,82,77,30.27,30.06,4,2,11,0.01
2013-10-11,66.0,62.1,58.0,60.0,56.4,52.0,86,82,78,30.06,29.99,4,2,12,0.01
2013-10-12,72.0,63.0,57.0,57.0,48.8,36.0,86,62,28,30.25,30.05,5,2,12,0.00
2013-10-13,63.0,55.7,49.0,52.0,48.3,-99.9,96,78,63,30.36,30.25,6,2,14,0.00
2013-10-14,66.0,55.1,49.0,51.0,49.1,48.0,97,82,56,30.34,30.20,4,1,8,0.00
2013-10-15,70.0,56.4,46.0,57.0,50.2,45.0,99,82,56,30.23,30.09,5,1,12,0.00
2013-10-16,66.0,57.0,49.0,59.0,53.7,48.0,97,89,75,30.09,29.88,3,0,10,0.00
2013-10-17,73.0,64.4,59.0,63.0,60.1,58.0,98,87,62,29.88,29.65,6,2,11,0.01
2013-10-18,66.0,59.6,49.0,63.0,48.0,42.0,95,67,45,29.94,29.63,5,1,14,0.02
2013-10-19,61.0,52.5,41.0,52.0,45.0,40.0,97,77,48,29.95,29.72,5,1,11,0.03
2013-10-20,61.0,51.1,43.0,52.0,39.9,-99.9,97,71,38,30.03,29.72,4,1,15,0.03
2013-10-21,65.0,50.5,38.0,43.0,39.6,34.0,98,71,33,30.12,29.95,6,1,16,0.00
2013-10-22,61.0,50.7,41.0,51.0,45.1,38.0,98,82,60,29.95,29.71,5,1,10,0.00
2013-10-23,53.0,44.0,36.0,40.0,36.4,34.0,95,76,50,29.78,29.59,5,0,11,0.00
2013-10-24,52.0,43.2,36.0,36.0,31.0,26.0,89,64,41,29.97,29.72,5,1,17,0.00
2013-10-25,51.0,45.1,35.0,35.0,31.4,28.0,87,60,42,30.19,29.97,6,2,19,0.00
2013-10-26,53.0,42.3,30.0,35.0,31.5,29.0,97,69,39,30.19,29.86,9,2,20,0.00
2013-10-27,57.0,48.1,40.0,34.0,31.1,-99.9,73,54,40,30.09,29.82,5,1,15,0.00
2013-10-28,60.0,45.5,32.0,37.0,32.3,-99.9,96,66,37,30.29,30.09,4,1,11,0.00
2013-10-29,53.0,44.2,37.0,35.0,32.3,30.0,81,64,44,30.40,30.29,4,1,8,0.00
2013-10-30,55.0,44.9,36.0,48.0,39.9,32.0,96,83,72,30.32,30.15,4,0,8,0.00
2013-10-31,61.0,50.7,41.0,58.0,49.4,40.0,99,96,87,30.21,29.76,6,0,16,0.02